Location: Bun Machan
(52.1403°N, 7.3744°W)
Time: 16:49:06
(UTC+00:00)

SL-16 R/B - Pass Details

Date: 14 July 2020
Orbit: 985 x 1007 km, 99.5° (Epoch: 13 August)

Event Time Altitude Azimuth Distance (km) Brightness Sun altitude
Rises 00:12:09 0° 116° (ESE) 3,723 5.2 -16.0°
Reaches altitude 10° 00:15:03 10° 103° (ESE) 2,779 4.7 -16.1°
Maximum altitude 00:19:56 25° 52° (NE) 1,925 4.4 -16.1°
Drops below altitude 10° 00:24:49 10° 0° (N) 2,796 6.3 -16.2°
Sets 00:27:45 0° 348° (NNW) 3,751 7.3 -16.2°
